Location: Clyde
(45.1830°S, 169.3170°E)
Time: 07:41:32
(UTC+12:00)

Cosmos 2278 Rocket - Pass Details

Date: 14 May 2021
Orbit: 841 x 845 km, 71.0° (Epoch: 20 June)

Event Time Altitude Azimuth Distance (km) Brightness Sun altitude
Rises 19:13:28 0° 209° (SSW) 3,442 5.7 -19.1°
Reaches altitude 10° 19:15:57 10° 212° (SSW) 2,499 4.9 -19.5°
Maximum altitude 19:21:37 62° 291° (WNW) 955 2.7 -20.5°
Drops below altitude 10° 19:27:12 10° 10° (N) 2,467 4.6 -21.5°
Sets 19:29:39 0° 13° (NNE) 3,393 5.3 -21.9°
